Regional Weather Roundup
Issued by NWS Little Rock, AR

Home | Current Version | Previous Version | Graphics & Text | Print | Product List | Glossary On
Versions: 1 2 3 4 5 6 7 8 9 10 11 12 13 14 15 16 17 18 19 20 21 22 23 24 25 26 27 28 29 30 31 32 33 34 35 36 37 38 39 40 41 42 43 44 45 46 47 48 49 50
000
ASUS44 KLZK 171212
RWRLZK

WEATHER ROUNDUP FOR ARKANSAS
NATIONAL WEATHER SERVICE LITTLE ROCK AR
600 AM CST FRI NOV 17 2017

NOTE: "FAIR" INDICATES FEW OR NO CLOUDS BELOW 12,000 FEET WITH NO
SIGNIFICANT WEATHER AND/OR OBSTRUCTIONS TO VISIBILITY.

ARZ001-003-010-029-171300-
NORTHWEST ARKANSAS

CITY           SKY/WX    TMP DP  RH WIND       PRES   REMARKS
FAYETTEVILLE   CLOUDY    58  55  90 S16G25    29.94F
6HR MIN TEMP:  56; 6HR MAX TEMP:  58;

FORT SMITH     CLOUDY    57  52  83 E7        29.97F
6HR MIN TEMP:  56; 6HR MAX TEMP:  57;

HARRISON       CLOUDY    53  48  83 SE15      30.00F
6HR MIN TEMP:  50; 6HR MAX TEMP:  54;

BENTONVILLE    CLOUDY    58  54  86 S13G20    29.95F
6HR MIN TEMP:  55; 6HR MAX TEMP:  58;

ROGERS         CLOUDY    57  53  86 S10       29.94F
6HR MIN TEMP:  55; 6HR MAX TEMP:  57;

SILOAM SPGS    CLOUDY    58  54  86 S12       29.92F
6HR MIN TEMP:  56; 6HR MAX TEMP:  58;

HIGHFILL       CLOUDY    58  55  90 S15       29.93F
6HR MIN TEMP:  55; 6HR MAX TEMP:  58;

SPRINGDALE     CLOUDY    59  55  88 S10G20    29.96
$$

ARZ004-005-016-171300-
NORTH CENTRAL ARKANSAS

CITY           SKY/WX    TMP DP  RH WIND       PRES   REMARKS
BATESVILLE     CLOUDY    47  42  83 E7        30.09F
6HR MIN TEMP:  44; 6HR MAX TEMP:  47;

FLIPPIN        CLOUDY    49  42  77 SE5       30.04F
6HR MIN TEMP:  48; 6HR MAX TEMP:  49;

MTN HOME       CLOUDY    48  43  82 SE8       30.02F
6HR MIN TEMP:  47; 6HR MAX TEMP:  48;

$$

ARZ040-041-171300-
WEST CENTRAL ARKANSAS

CITY           SKY/WX    TMP DP  RH WIND       PRES   REMARKS
MENA           CLOUDY    63  63 100 CALM      30.00S
MOUNT IDA      CLOUDY    58  54  86 SE7       30.00F
6HR MIN TEMP:  57; 6HR MAX TEMP:  59;

$$

ARZ009-017-025-026-028-171300-
NORTHEAST ARKANSAS

CITY           SKY/WX    TMP DP  RH WIND       PRES   REMARKS
JONESBORO      CLOUDY    44  42  93 E5        30.11F
6HR MIN TEMP:  40; 6HR MAX TEMP:  44;

NEWPORT        CLOUDY    47  44  90 E5        30.10F
6HR MIN TEMP:  41; 6HR MAX TEMP:  47;

WALNUT RIDGE   LGT RAIN  43  41  93 NE6       30.10F VSB 1
6HR MIN TEMP:  37; 6HR MAX TEMP:  43; 6HR PCP: TRACE;

BLYTHEVILLE    CLEAR     41  40  96 SE6       30.11F
6HR MIN TEMP:  39; 6HR MAX TEMP:  42;

$$

ARZ022-023-033-042-044-171300-
CENTRAL ARKANSAS

CITY           SKY/WX    TMP DP  RH WIND       PRES   REMARKS
LITTLE ROCK    CLOUDY    52  49  89 E6        30.08F
6HR MIN TEMP:  52; 6HR MAX TEMP:  56; 6HR PCP:  0.02;

N LITTLE ROCK    N/A     52  47  85 SE6       30.09F
6HR MIN TEMP:  52; 6HR MAX TEMP:  54;

JACKSONVILLE   CLOUDY    52  47  83 E7        30.07F
6HR MIN TEMP:  52; 6HR MAX TEMP:  54; 6HR PCP: TRACE;

HOT SPRINGS    MOCLDY    56  53  90 E8        30.05S
6HR MIN TEMP:  56; 6HR MAX TEMP:  58; 6HR PCP: TRACE;

RUSSELLVILLE   CLOUDY    53  47  79 E6        30.03F
6HR MIN TEMP:  53; 6HR MAX TEMP:  56;

CLINTON        CLOUDY    52  46  82 CALM      30.07F
$$

ARZ036-171300-
EAST ARKANSAS

CITY           SKY/WX    TMP DP  RH WIND       PRES   REMARKS
WEST MEMPHIS   CLOUDY    51  45  79 S8        30.10F
6HR MIN TEMP:  43; 6HR MAX TEMP:  51;

$$

ARZ050-053-066-070-073-171300-
SOUTHWEST ARKANSAS

CITY           SKY/WX    TMP DP  RH WIND       PRES   REMARKS
ARKADELPHIA    CLOUDY    57  54  89 E3        30.06F
6HR MIN TEMP:  57; 6HR MAX TEMP:  58;

CAMDEN         CLOUDY    57  54  88 SE5       30.05F
TEXARKANA      CLOUDY    61  59  93 S7        30.01F
6HR MIN TEMP:  57; 6HR MAX TEMP:  61;

EL DORADO      MOCLDY    58  58 100 SE3       30.06F
6HR MIN TEMP:  57; 6HR MAX TEMP:  59;

DE QUEEN       CLOUDY    59  57  93 E6        29.99S
6HR MIN TEMP:  58; 6HR MAX TEMP:  59; 6HR PCP: TRACE;

$$

ARZ056-057-069-171300-
SOUTHEAST ARKANSAS

CITY           SKY/WX    TMP DP  RH WIND       PRES   REMARKS
PINE BLUFF     CLOUDY    54  51  90 SE3       30.09F
6HR MIN TEMP:  54; 6HR MAX TEMP:  56; 6HR PCP:  0.01;

STUTTGART      LGT RAIN  54  49  83 CALM      30.10F
6HR MIN TEMP:  52; 6HR MAX TEMP:  54; 6HR PCP: TRACE;

MONTICELLO     CLOUDY    57  54  89 E3        30.09S
6HR MIN TEMP:  56; 6HR MAX TEMP:  57;


$$





USA.gov is the U.S. government's official web portal to all federal, state and local government web resources and services.